When you browse on this site, cookies collect data to enhance your experience and personalize the content and advertising you see.
Visit our Privacy Policy to learn more. By continuing to use the site, you agree to this use of cookies and data.

Stündliche Wetter Los Reyes

Heute, 7 August, Freitag

Zeit Temperatur Niederschläge Wind Luftdruck Luftfeuchtigkeit
00:00 +13°C° 0 mm 1 m/S 585 mmHg 95%
01:00 +14°C° 0 mm 1 m/S 585 mmHg 95%
02:00 +14°C° 0 mm 1 m/S 585 mmHg 95%
03:00 +12°C° 0.1 mm 0 m/S 585 mmHg 95%
04:00 +12°C° 0.1 mm 0 m/S 585 mmHg 94%
05:00 +12°C° 0.1 mm 0 m/S 585 mmHg 94%
06:00 +14°C° 0.1 mm 1 m/S 586 mmHg 90%
07:00 +16°C° 0.1 mm 1 m/S 587 mmHg 86%
08:00 +18°C° 0.1 mm 1 m/S 587 mmHg 82%
09:00 +18°C° 0.5 mm 2 m/S 588 mmHg 79%
10:00 +19°C° 0.5 mm 2 m/S 588 mmHg 77%
11:00 +20°C° 0.5 mm 3 m/S 588 mmHg 74%
12:00 +19°C° 0.7 mm 3 m/S 587 mmHg 75%
13:00 +19°C° 0.7 mm 3 m/S 587 mmHg 76%
14:00 +19°C° 0.7 mm 3 m/S 586 mmHg 77%
15:00 +18°C° 0.5 mm 3 m/S 586 mmHg 81%
16:00 +17°C° 0.5 mm 2 m/S 586 mmHg 85%
17:00 +16°C° 0.5 mm 2 m/S 585 mmHg 88%
18:00 +15°C° 0.2 mm 2 m/S 586 mmHg 91%
19:00 +15°C° 0.2 mm 1 m/S 586 mmHg 93%
20:00 +14°C° 0.2 mm 1 m/S 586 mmHg 96%
21:00 +14°C° 0 mm 1 m/S 586 mmHg 95%
22:00 +13°C° 0 mm 1 m/S 586 mmHg 94%
23:00 +13°C° 0 mm 1 m/S 586 mmHg 94%

Morgen, 8 August, Samstag

Zeit Temperatur Niederschläge Wind Luftdruck Luftfeuchtigkeit
00:00 +13°C° 0 mm 1 m/S 586 mmHg 94%
01:00 +13°C° 0 mm 1 m/S 585 mmHg 94%
02:00 +12°C° 0 mm 1 m/S 585 mmHg 94%
03:00 +13°C° 0.1 mm 1 m/S 585 mmHg 94%
04:00 +13°C° 0.1 mm 1 m/S 586 mmHg 94%
05:00 +13°C° 0.1 mm 1 m/S 586 mmHg 95%
06:00 +14°C° 0.1 mm 1 m/S 586 mmHg 93%
07:00 +14°C° 0.1 mm 1 m/S 587 mmHg 92%
08:00 +15°C° 0.1 mm 1 m/S 587 mmHg 90%
09:00 +16°C° 0.7 mm 2 m/S 587 mmHg 89%
10:00 +16°C° 0.7 mm 2 m/S 588 mmHg 89%
11:00 +17°C° 0.7 mm 3 m/S 588 mmHg 88%
12:00 +17°C° 0.7 mm 3 m/S 587 mmHg 89%
13:00 +16°C° 0.7 mm 2 m/S 586 mmHg 90%
14:00 +16°C° 0.7 mm 2 m/S 586 mmHg 91%
15:00 +15°C° 0.4 mm 2 m/S 586 mmHg 92%
16:00 +15°C° 0.4 mm 2 m/S 586 mmHg 94%
17:00 +15°C° 0.4 mm 2 m/S 585 mmHg 96%
18:00 +14°C° 0.3 mm 2 m/S 586 mmHg 97%
19:00 +14°C° 0.3 mm 2 m/S 586 mmHg 97%
20:00 +14°C° 0.3 mm 1 m/S 587 mmHg 97%
21:00 +14°C° 0.2 mm 1 m/S 587 mmHg 97%
22:00 +13°C° 0.2 mm 1 m/S 587 mmHg 97%
23:00 +13°C° 0.2 mm 1 m/S 587 mmHg 97%

übermorgen, 9 August, Sonntag

Zeit Temperatur Niederschläge Wind Luftdruck Luftfeuchtigkeit
00:00 +13°C° 0 mm 1 m/S 587 mmHg 97%
01:00 +13°C° 0 mm 1 m/S 586 mmHg 97%
02:00 +13°C° 0 mm 1 m/S 586 mmHg 97%
03:00 +13°C° 0.1 mm 1 m/S 586 mmHg 97%
04:00 +13°C° 0.1 mm 1 m/S 586 mmHg 96%
05:00 +11°C° 0.1 mm 0 m/S 586 mmHg 96%
06:00 +13°C° 0.1 mm 1 m/S 587 mmHg 94%
07:00 +14°C° 0.1 mm 1 m/S 587 mmHg 92%
08:00 +15°C° 0.1 mm 1 m/S 588 mmHg 90%
09:00 +16°C° 0.1 mm 1 m/S 588 mmHg 86%
10:00 +17°C° 0.1 mm 2 m/S 588 mmHg 82%
11:00 +18°C° 0.1 mm 2 m/S 589 mmHg 78%
12:00 +17°C° 0.5 mm 2 m/S 588 mmHg 83%
13:00 +16°C° 0.5 mm 2 m/S 587 mmHg 88%
14:00 +16°C° 0.5 mm 2 m/S 586 mmHg 93%
15:00 +15°C° 0.7 mm 2 m/S 586 mmHg 95%
16:00 +15°C° 0.7 mm 2 m/S 586 mmHg 96%
17:00 +14°C° 0.7 mm 2 m/S 585 mmHg 98%
18:00 +14°C° 1.1 mm 1 m/S 586 mmHg 98%
19:00 +14°C° 1.1 mm 1 m/S 586 mmHg 98%
20:00 +14°C° 1.1 mm 1 m/S 586 mmHg 98%
21:00 +14°C° 0.7 mm 1 m/S 586 mmHg 98%
22:00 +14°C° 0.7 mm 1 m/S 587 mmHg 98%
23:00 +12°C° 0.7 mm 0 m/S 587 mmHg 97%

10 August, Montag

Zeit Temperatur Niederschläge Wind Luftdruck Luftfeuchtigkeit
00:00 +12°C° 0 mm 0 m/S 586 mmHg 97%
01:00 +12°C° 0 mm 0 m/S 586 mmHg 97%
02:00 +12°C° 0 mm 0 m/S 586 mmHg 97%
03:00 +12°C° 0 mm 0 m/S 586 mmHg 97%
04:00 +13°C° 0 mm 1 m/S 586 mmHg 96%
05:00 +12°C° 0 mm 1 m/S 586 mmHg 95%
06:00 +13°C° 0 mm 1 m/S 586 mmHg 94%
07:00 +14°C° 0 mm 1 m/S 587 mmHg 92%
08:00 +14°C° 0 mm 1 m/S 587 mmHg 90%
09:00 +16°C° 0 mm 1 m/S 588 mmHg 83%
10:00 +17°C° 0 mm 2 m/S 588 mmHg 76%
11:00 +19°C° 0 mm 2 m/S 589 mmHg 69%
12:00 +19°C° 0.4 mm 2 m/S 588 mmHg 75%
13:00 +18°C° 0.4 mm 3 m/S 587 mmHg 81%
14:00 +17°C° 0.4 mm 3 m/S 586 mmHg 87%
15:00 +17°C° 0.8 mm 2 m/S 586 mmHg 90%
16:00 +16°C° 0.8 mm 2 m/S 585 mmHg 94%
17:00 +15°C° 0.8 mm 2 m/S 585 mmHg 97%
18:00 +14°C° 0.4 mm 1 m/S 585 mmHg 97%
19:00 +14°C° 0.4 mm 1 m/S 585 mmHg 98%
20:00 +14°C° 0.4 mm 1 m/S 586 mmHg 98%
21:00 +14°C° 0.2 mm 1 m/S 586 mmHg 98%
22:00 +14°C° 0.2 mm 1 m/S 586 mmHg 98%
23:00 +13°C° 0.2 mm 1 m/S 586 mmHg 98%

11 August, Dienstag

Zeit Temperatur Niederschläge Wind Luftdruck Luftfeuchtigkeit
00:00 +13°C° 0 mm 1 m/S 585 mmHg 97%
01:00 +12°C° 0 mm 0 m/S 585 mmHg 96%
02:00 +12°C° 0 mm 0 m/S 585 mmHg 96%
03:00 +11°C° 0 mm 0 m/S 584 mmHg 95%
04:00 +11°C° 0 mm 0 m/S 584 mmHg 95%
05:00 +11°C° 0 mm 0 m/S 584 mmHg 94%
06:00 +12°C° 0 mm 0 m/S 585 mmHg 88%
07:00 +15°C° 0 mm 1 m/S 586 mmHg 82%
08:00 +18°C° 0 mm 1 m/S 587 mmHg 77%
09:00 +19°C° 0.2 mm 1 m/S 587 mmHg 74%
10:00 +19°C° 0.2 mm 2 m/S 587 mmHg 72%
11:00 +20°C° 0.2 mm 3 m/S 588 mmHg 69%
12:00 +19°C° 0.9 mm 3 m/S 587 mmHg 77%
13:00 +17°C° 0.9 mm 3 m/S 585 mmHg 85%
14:00 +16°C° 0.9 mm 2 m/S 584 mmHg 93%
15:00 +16°C° 0.7 mm 2 m/S 584 mmHg 94%
16:00 +15°C° 0.7 mm 2 m/S 584 mmHg 95%
17:00 +15°C° 0.7 mm 2 m/S 584 mmHg 96%
18:00 +15°C° 0.4 mm 2 m/S 584 mmHg 97%
19:00 +14°C° 0.4 mm 1 m/S 585 mmHg 97%
20:00 +14°C° 0.4 mm 1 m/S 585 mmHg 98%
21:00 +14°C° 0.1 mm 1 m/S 585 mmHg 97%
22:00 +13°C° 0.1 mm 1 m/S 585 mmHg 97%
23:00 +13°C° 0.1 mm 1 m/S 585 mmHg 97%

12 August, Mittwoch

Zeit Temperatur Niederschläge Wind Luftdruck Luftfeuchtigkeit
00:00 +13°C° 0 mm 1 m/S 585 mmHg 96%
01:00 +13°C° 0 mm 1 m/S 584 mmHg 95%
02:00 +13°C° 0 mm 1 m/S 584 mmHg 94%
03:00 +12°C° 0 mm 0 m/S 584 mmHg 93%
04:00 +12°C° 0 mm 0 m/S 584 mmHg 93%
05:00 +12°C° 0 mm 0 m/S 584 mmHg 92%
06:00 +13°C° 0 mm 0 m/S 585 mmHg 89%
07:00 +14°C° 0 mm 0 m/S 586 mmHg 85%
08:00 +15°C° 0 mm 0 m/S 586 mmHg 82%
09:00 +18°C° 0 mm 1 m/S 587 mmHg 77%
10:00 +19°C° 0 mm 2 m/S 587 mmHg 71%
11:00 +20°C° 0 mm 3 m/S 588 mmHg 66%
12:00 +19°C° 0.8 mm 3 m/S 587 mmHg 73%
13:00 +18°C° 0.8 mm 3 m/S 586 mmHg 81%
14:00 +17°C° 0.8 mm 3 m/S 585 mmHg 88%
15:00 +17°C° 0.5 mm 2 m/S 585 mmHg 90%
16:00 +16°C° 0.5 mm 2 m/S 585 mmHg 91%
17:00 +15°C° 0.5 mm 2 m/S 584 mmHg 93%
18:00 +15°C° 0.1 mm 1 m/S 585 mmHg 94%
19:00 +14°C° 0.1 mm 1 m/S 585 mmHg 96%
20:00 +13°C° 0.1 mm 1 m/S 585 mmHg 98%
21:00 +13°C° 0 mm 1 m/S 585 mmHg 96%
22:00 +13°C° 0 mm 1 m/S 585 mmHg 95%
23:00 +12°C° 0 mm 1 m/S 585 mmHg 94%
Mehr zeigen